When you browse on this site, cookies collect data to enhance your experience and personalize the content and advertising you see.
Visit our Privacy Policy to learn more. By continuing to use the site, you agree to this use of cookies and data.
  • en France
  • Liste des pays
  • À 7 jours
  • Température de l'eau
  • Carte satellitaire
  • Carte météo
  • Widgets météo
  • user-avatar
    Se connecter

    Météo par heure à Barra

    Ce jour, 22 Avril, Lundi

    Heure Température Précipitation Vent Pression Humidité
    00:00 +24°C° 0.3 mm 3 m/s 749 mmHg 95%
    01:00 +24°C° 0.3 mm 3 m/s 749 mmHg 96%
    02:00 +24°C° 0.3 mm 3 m/s 749 mmHg 96%
    03:00 +24°C° 0.3 mm 3 m/s 749 mmHg 96%
    04:00 +24°C° 0.3 mm 3 m/s 748 mmHg 97%
    05:00 +24°C° 0.2 mm 3 m/s 749 mmHg 97%
    06:00 +24°C° 0.2 mm 3 m/s 749 mmHg 97%
    07:00 +24°C° 0.2 mm 3 m/s 749 mmHg 97%
    08:00 +25°C° 0.2 mm 4 m/s 749 mmHg 91%
    09:00 +26°C° 0.2 mm 4 m/s 750 mmHg 85%
    10:00 +27°C° 0.2 mm 4 m/s 750 mmHg 80%
    11:00 +28°C° 0.2 mm 4 m/s 750 mmHg 74%
    12:00 +29°C° 0.2 mm 4 m/s 749 mmHg 69%
    13:00 +30°C° 0.2 mm 4 m/s 749 mmHg 63%
    14:00 +30°C° 0.2 mm 4 m/s 748 mmHg 66%
    15:00 +29°C° 0.2 mm 4 m/s 748 mmHg 70%
    16:00 +28°C° 0.2 mm 4 m/s 748 mmHg 73%
    17:00 +27°C° 0.2 mm 3 m/s 748 mmHg 79%
    18:00 +26°C° 0.2 mm 3 m/s 749 mmHg 86%
    19:00 +25°C° 0.2 mm 3 m/s 749 mmHg 92%
    20:00 +24°C° 0.3 mm 3 m/s 750 mmHg 93%
    21:00 +24°C° 0.3 mm 3 m/s 750 mmHg 94%
    22:00 +24°C° 0.3 mm 3 m/s 750 mmHg 95%
    23:00 +24°C° 0.3 mm 3 m/s 750 mmHg 95%

    Demain, 23 Avril, Mardi

    Heure Température Précipitation Vent Pression Humidité
    00:00 +24°C° 0.3 mm 3 m/s 750 mmHg 95%
    01:00 +24°C° 0.3 mm 3 m/s 750 mmHg 95%
    02:00 +24°C° 0.3 mm 3 m/s 749 mmHg 95%
    03:00 +24°C° 0.3 mm 3 m/s 749 mmHg 96%
    04:00 +24°C° 0.3 mm 3 m/s 749 mmHg 96%
    05:00 +24°C° 0.3 mm 3 m/s 749 mmHg 96%
    06:00 +24°C° 0.3 mm 3 m/s 750 mmHg 96%
    07:00 +24°C° 0.3 mm 3 m/s 750 mmHg 96%
    08:00 +25°C° 0.3 mm 4 m/s 750 mmHg 92%
    09:00 +26°C° 0.3 mm 4 m/s 751 mmHg 87%
    10:00 +27°C° 0.3 mm 4 m/s 751 mmHg 83%
    11:00 +27°C° 0.6 mm 4 m/s 750 mmHg 81%
    12:00 +28°C° 0.6 mm 4 m/s 750 mmHg 78%
    13:00 +28°C° 0.6 mm 4 m/s 749 mmHg 76%
    14:00 +28°C° 0.5 mm 4 m/s 749 mmHg 76%
    15:00 +28°C° 0.5 mm 3 m/s 749 mmHg 77%
    16:00 +28°C° 0.5 mm 3 m/s 748 mmHg 77%
    17:00 +27°C° 0.9 mm 3 m/s 749 mmHg 83%
    18:00 +25°C° 0.9 mm 3 m/s 749 mmHg 88%
    19:00 +24°C° 0.9 mm 3 m/s 750 mmHg 94%
    20:00 +24°C° 0.9 mm 3 m/s 750 mmHg 94%
    21:00 +24°C° 0.9 mm 3 m/s 750 mmHg 95%
    22:00 +24°C° 0.9 mm 3 m/s 751 mmHg 95%
    23:00 +24°C° 0.8 mm 3 m/s 751 mmHg 96%

    Après-demain, 24 Avril, Mercredi

    Heure Température Précipitation Vent Pression Humidité
    00:00 +24°C° 0.8 mm 3 m/s 750 mmHg 96%
    01:00 +24°C° 0.8 mm 3 m/s 750 mmHg 96%
    02:00 +24°C° 0.3 mm 3 m/s 750 mmHg 96%
    03:00 +24°C° 0.3 mm 3 m/s 749 mmHg 97%
    04:00 +24°C° 0.3 mm 3 m/s 749 mmHg 97%
    05:00 +24°C° 0.2 mm 3 m/s 749 mmHg 97%
    06:00 +23°C° 0.2 mm 4 m/s 750 mmHg 97%
    07:00 +23°C° 0.2 mm 4 m/s 750 mmHg 96%
    08:00 +25°C° 0.1 mm 4 m/s 750 mmHg 91%
    09:00 +26°C° 0.1 mm 4 m/s 751 mmHg 86%
    10:00 +27°C° 0.1 mm 4 m/s 751 mmHg 80%
    11:00 +28°C° 0.2 mm 4 m/s 750 mmHg 75%
    12:00 +29°C° 0.2 mm 4 m/s 750 mmHg 70%
    13:00 +30°C° 0.2 mm 5 m/s 749 mmHg 65%
    14:00 +30°C° 0.3 mm 4 m/s 749 mmHg 68%
    15:00 +29°C° 0.3 mm 4 m/s 748 mmHg 71%
    16:00 +29°C° 0.3 mm 4 m/s 748 mmHg 74%
    17:00 +27°C° 0.5 mm 4 m/s 748 mmHg 80%
    18:00 +26°C° 0.5 mm 4 m/s 749 mmHg 87%
    19:00 +25°C° 0.5 mm 3 m/s 749 mmHg 93%
    20:00 +25°C° 0.4 mm 4 m/s 750 mmHg 94%
    21:00 +25°C° 0.4 mm 4 m/s 750 mmHg 95%
    22:00 +23°C° 0.4 mm 4 m/s 750 mmHg 95%
    23:00 +23°C° 0.4 mm 4 m/s 750 mmHg 95%

    25 Avril, Jeudi

    Heure Température Précipitation Vent Pression Humidité
    00:00 +23°C° 0.4 mm 4 m/s 750 mmHg 96%
    01:00 +23°C° 0.4 mm 4 m/s 749 mmHg 96%
    02:00 +23°C° 0.4 mm 4 m/s 749 mmHg 96%
    03:00 +23°C° 0.4 mm 4 m/s 748 mmHg 96%
    04:00 +23°C° 0.4 mm 4 m/s 748 mmHg 96%
    05:00 +23°C° 0.4 mm 4 m/s 748 mmHg 96%
    06:00 +23°C° 0.4 mm 4 m/s 749 mmHg 96%
    07:00 +23°C° 0.4 mm 4 m/s 749 mmHg 96%
    08:00 +25°C° 0.7 mm 4 m/s 750 mmHg 94%
    09:00 +25°C° 0.7 mm 4 m/s 750 mmHg 92%
    10:00 +26°C° 0.7 mm 4 m/s 750 mmHg 91%
    11:00 +26°C° 0.7 mm 4 m/s 750 mmHg 88%
    12:00 +27°C° 0.7 mm 4 m/s 749 mmHg 85%
    13:00 +28°C° 0.7 mm 4 m/s 748 mmHg 83%
    14:00 +27°C° 0.5 mm 4 m/s 748 mmHg 83%
    15:00 +27°C° 0.5 mm 4 m/s 748 mmHg 83%
    16:00 +27°C° 0.5 mm 4 m/s 748 mmHg 83%
    17:00 +26°C° 0.3 mm 4 m/s 748 mmHg 87%
    18:00 +25°C° 0.3 mm 4 m/s 749 mmHg 90%
    19:00 +25°C° 0.3 mm 4 m/s 749 mmHg 94%
    20:00 +23°C° 0.8 mm 4 m/s 749 mmHg 94%
    21:00 +23°C° 0.8 mm 4 m/s 750 mmHg 94%
    22:00 +23°C° 0.8 mm 4 m/s 750 mmHg 94%
    23:00 +23°C° 1.2 mm 4 m/s 750 mmHg 95%

    26 Avril, Vendredi

    Heure Température Précipitation Vent Pression Humidité
    00:00 +23°C° 1.2 mm 4 m/s 749 mmHg 96%
    01:00 +23°C° 1.2 mm 4 m/s 749 mmHg 96%
    02:00 +23°C° 1.1 mm 4 m/s 749 mmHg 96%
    03:00 +23°C° 1.1 mm 4 m/s 748 mmHg 97%
    04:00 +23°C° 1.1 mm 4 m/s 748 mmHg 97%
    05:00 +23°C° 0.8 mm 4 m/s 749 mmHg 97%
    06:00 +23°C° 0.8 mm 4 m/s 749 mmHg 97%
    07:00 +23°C° 0.8 mm 4 m/s 750 mmHg 97%
    08:00 +23°C° 0.9 mm 4 m/s 750 mmHg 96%
    09:00 +25°C° 0.9 mm 4 m/s 750 mmHg 95%
    10:00 +25°C° 0.9 mm 4 m/s 750 mmHg 94%
    11:00 +25°C° 1.1 mm 4 m/s 750 mmHg 92%
    12:00 +26°C° 1.1 mm 4 m/s 749 mmHg 90%
    13:00 +26°C° 1.1 mm 4 m/s 749 mmHg 88%
    14:00 +26°C° 0.8 mm 4 m/s 748 mmHg 87%
    15:00 +26°C° 0.8 mm 4 m/s 748 mmHg 87%
    16:00 +26°C° 0.8 mm 4 m/s 748 mmHg 87%
    17:00 +26°C° 1 mm 4 m/s 748 mmHg 90%
    18:00 +25°C° 1 mm 4 m/s 749 mmHg 92%
    19:00 +23°C° 1 mm 4 m/s 749 mmHg 94%
    20:00 +23°C° 1.3 mm 4 m/s 750 mmHg 94%
    21:00 +23°C° 1.3 mm 4 m/s 750 mmHg 94%
    22:00 +23°C° 1.3 mm 4 m/s 751 mmHg 94%
    23:00 +23°C° 1.4 mm 4 m/s 750 mmHg 95%

    27 Avril, Samedi

    Heure Température Précipitation Vent Pression Humidité
    00:00 +23°C° 1.4 mm 4 m/s 750 mmHg 95%
    01:00 +23°C° 1.4 mm 4 m/s 750 mmHg 95%
    02:00 +23°C° 0.4 mm 4 m/s 750 mmHg 95%
    03:00 +23°C° 0.4 mm 4 m/s 750 mmHg 95%
    04:00 +23°C° 0.4 mm 5 m/s 749 mmHg 95%
    05:00 +22°C° 0.1 mm 5 m/s 750 mmHg 95%
    06:00 +22°C° 0.1 mm 4 m/s 750 mmHg 95%
    07:00 +22°C° 0.1 mm 4 m/s 751 mmHg 94%
    08:00 +23°C° 0.2 mm 4 m/s 751 mmHg 92%
    09:00 +23°C° 0.2 mm 5 m/s 751 mmHg 89%
    10:00 +25°C° 0.2 mm 5 m/s 751 mmHg 86%
    11:00 +26°C° 0.2 mm 5 m/s 750 mmHg 82%
    12:00 +26°C° 0.2 mm 5 m/s 750 mmHg 78%
    13:00 +27°C° 0.2 mm 5 m/s 749 mmHg 74%
    14:00 +27°C° 0.1 mm 5 m/s 749 mmHg 71%
    15:00 +28°C° 0.1 mm 5 m/s 749 mmHg 68%
    16:00 +28°C° 0.1 mm 5 m/s 749 mmHg 65%
    17:00 +27°C° 0 mm 5 m/s 749 mmHg 70%
    18:00 +25°C° 0 mm 4 m/s 750 mmHg 75%
    19:00 +23°C° 0 mm 4 m/s 750 mmHg 79%
    20:00 +23°C° 0 mm 4 m/s 751 mmHg 81%
    21:00 +23°C° 0 mm 4 m/s 751 mmHg 82%
    22:00 +22°C° 0 mm 4 m/s 751 mmHg 84%
    23:00 +22°C° 0 mm 4 m/s 751 mmHg 85%
    Voir plus